When you browse on this site, cookies collect data to enhance your experience and personalize the content and advertising you see.
Visit our Privacy Policy to learn more. By continuing to use the site, you agree to this use of cookies and data.
  • In Österreich
  • Länderverzeichnis
  • Für 7 Tage
  • Wassertemperatur
  • Wetterkarte
  • News
  • Widgets
  • user-avatar
    Anmelden

    Stündliche Wetter Susa

    Heute, 22 September, Sonntag

    Zeit Temperatur Niederschläge Wind Luftdruck Luftfeuchtigkeit
    00:00 +10°C° 0 mm 1 m/S 558 mmHg 92%
    01:00 +10°C° 0 mm 1 m/S 558 mmHg 91%
    02:00 +10°C° 0 mm 1 m/S 558 mmHg 90%
    03:00 +10°C° 0 mm 1 m/S 557 mmHg 90%
    04:00 +10°C° 0 mm 1 m/S 557 mmHg 90%
    05:00 +11°C° 0 mm 1 m/S 558 mmHg 88%
    06:00 +11°C° 0 mm 1 m/S 559 mmHg 86%
    07:00 +12°C° 0 mm 1 m/S 560 mmHg 84%
    08:00 +14°C° 0 mm 1 m/S 561 mmHg 77%
    09:00 +16°C° 0 mm 1 m/S 562 mmHg 71%
    10:00 +19°C° 0 mm 1 m/S 563 mmHg 64%
    11:00 +19°C° 0.6 mm 1 m/S 562 mmHg 67%
    12:00 +18°C° 0.6 mm 2 m/S 562 mmHg 69%
    13:00 +18°C° 0.6 mm 2 m/S 561 mmHg 72%
    14:00 +18°C° 1 mm 2 m/S 560 mmHg 74%
    15:00 +18°C° 1 mm 1 m/S 560 mmHg 76%
    16:00 +18°C° 1 mm 1 m/S 559 mmHg 78%
    17:00 +15°C° 0.6 mm 1 m/S 559 mmHg 83%
    18:00 +14°C° 0.6 mm 1 m/S 558 mmHg 88%
    19:00 +12°C° 0.6 mm 1 m/S 558 mmHg 93%
    20:00 +12°C° 0.2 mm 1 m/S 558 mmHg 94%
    21:00 +11°C° 0.2 mm 1 m/S 558 mmHg 94%
    22:00 +11°C° 0.2 mm 1 m/S 558 mmHg 95%
    23:00 +10°C° 0 mm 1 m/S 558 mmHg 95%

    Morgen, 23 September, Montag

    Zeit Temperatur Niederschläge Wind Luftdruck Luftfeuchtigkeit
    00:00 +10°C° 0 mm 1 m/S 558 mmHg 95%
    01:00 +10°C° 0 mm 1 m/S 558 mmHg 95%
    02:00 +10°C° 0 mm 1 m/S 558 mmHg 94%
    03:00 +10°C° 0 mm 1 m/S 558 mmHg 93%
    04:00 +10°C° 0 mm 1 m/S 558 mmHg 92%
    05:00 +10°C° 0 mm 1 m/S 558 mmHg 90%
    06:00 +11°C° 0 mm 1 m/S 559 mmHg 89%
    07:00 +12°C° 0 mm 1 m/S 560 mmHg 87%
    08:00 +14°C° 0 mm 1 m/S 561 mmHg 78%
    09:00 +16°C° 0 mm 1 m/S 562 mmHg 70%
    10:00 +19°C° 0 mm 1 m/S 563 mmHg 62%
    11:00 +20°C° 0.4 mm 1 m/S 563 mmHg 64%
    12:00 +19°C° 0.4 mm 2 m/S 562 mmHg 66%
    13:00 +19°C° 0.4 mm 2 m/S 561 mmHg 68%
    14:00 +19°C° 0.8 mm 1 m/S 560 mmHg 74%
    15:00 +18°C° 0.8 mm 1 m/S 559 mmHg 80%
    16:00 +16°C° 0.8 mm 1 m/S 559 mmHg 86%
    17:00 +15°C° 1 mm 1 m/S 558 mmHg 90%
    18:00 +14°C° 1 mm 1 m/S 558 mmHg 93%
    19:00 +12°C° 1 mm 0 m/S 558 mmHg 96%
    20:00 +11°C° 1.3 mm 0 m/S 558 mmHg 96%
    21:00 +11°C° 1.3 mm 0 m/S 558 mmHg 96%
    22:00 +11°C° 1.3 mm 0 m/S 559 mmHg 96%
    23:00 +11°C° 0.6 mm 1 m/S 559 mmHg 96%

    übermorgen, 24 September, Dienstag

    Zeit Temperatur Niederschläge Wind Luftdruck Luftfeuchtigkeit
    00:00 +11°C° 0.6 mm 1 m/S 558 mmHg 95%
    01:00 +11°C° 0.6 mm 1 m/S 558 mmHg 94%
    02:00 +11°C° 0 mm 1 m/S 558 mmHg 93%
    03:00 +10°C° 0 mm 1 m/S 558 mmHg 92%
    04:00 +10°C° 0 mm 1 m/S 557 mmHg 91%
    05:00 +10°C° 0 mm 1 m/S 558 mmHg 89%
    06:00 +11°C° 0 mm 1 m/S 559 mmHg 87%
    07:00 +12°C° 0 mm 1 m/S 559 mmHg 86%
    08:00 +14°C° 0.1 mm 1 m/S 561 mmHg 78%
    09:00 +18°C° 0.1 mm 1 m/S 562 mmHg 70%
    10:00 +20°C° 0.1 mm 1 m/S 563 mmHg 62%
    11:00 +20°C° 0.6 mm 1 m/S 562 mmHg 64%
    12:00 +20°C° 0.6 mm 1 m/S 562 mmHg 67%
    13:00 +20°C° 0.6 mm 1 m/S 561 mmHg 69%
    14:00 +19°C° 1.3 mm 1 m/S 560 mmHg 75%
    15:00 +18°C° 1.3 mm 1 m/S 559 mmHg 81%
    16:00 +16°C° 1.3 mm 1 m/S 559 mmHg 87%
    17:00 +15°C° 2.2 mm 1 m/S 559 mmHg 90%
    18:00 +14°C° 2.2 mm 1 m/S 558 mmHg 93%
    19:00 +13°C° 2.2 mm 1 m/S 558 mmHg 96%
    20:00 +13°C° 1.6 mm 1 m/S 559 mmHg 96%
    21:00 +12°C° 1.6 mm 1 m/S 559 mmHg 96%
    22:00 +12°C° 1.6 mm 1 m/S 560 mmHg 96%
    23:00 +12°C° 0.2 mm 1 m/S 559 mmHg 96%

    25 September, Mittwoch

    Zeit Temperatur Niederschläge Wind Luftdruck Luftfeuchtigkeit
    00:00 +12°C° 0.2 mm 1 m/S 559 mmHg 96%
    01:00 +11°C° 0.2 mm 0 m/S 559 mmHg 95%
    02:00 +11°C° 0 mm 1 m/S 558 mmHg 95%
    03:00 +11°C° 0 mm 1 m/S 558 mmHg 94%
    04:00 +11°C° 0 mm 1 m/S 558 mmHg 94%
    05:00 +12°C° 0 mm 1 m/S 559 mmHg 93%
    06:00 +12°C° 0 mm 1 m/S 559 mmHg 92%
    07:00 +12°C° 0 mm 1 m/S 560 mmHg 91%
    08:00 +14°C° 0.3 mm 1 m/S 561 mmHg 86%
    09:00 +15°C° 0.3 mm 1 m/S 562 mmHg 81%
    10:00 +18°C° 0.3 mm 1 m/S 563 mmHg 77%
    11:00 +18°C° 0.8 mm 1 m/S 562 mmHg 77%
    12:00 +18°C° 0.8 mm 1 m/S 561 mmHg 77%
    13:00 +18°C° 0.8 mm 1 m/S 561 mmHg 77%
    14:00 +18°C° 0.9 mm 1 m/S 560 mmHg 80%
    15:00 +16°C° 0.9 mm 1 m/S 560 mmHg 82%
    16:00 +16°C° 0.9 mm 1 m/S 559 mmHg 84%
    17:00 +15°C° 0.5 mm 1 m/S 559 mmHg 88%
    18:00 +14°C° 0.5 mm 1 m/S 559 mmHg 91%
    19:00 +12°C° 0.5 mm 1 m/S 558 mmHg 94%
    20:00 +12°C° 0.3 mm 1 m/S 559 mmHg 95%
    21:00 +12°C° 0.3 mm 1 m/S 559 mmHg 95%
    22:00 +12°C° 0.3 mm 1 m/S 559 mmHg 95%
    23:00 +11°C° 0 mm 1 m/S 559 mmHg 95%

    26 September, Donnerstag

    Zeit Temperatur Niederschläge Wind Luftdruck Luftfeuchtigkeit
    00:00 +11°C° 0 mm 1 m/S 558 mmHg 95%
    01:00 +11°C° 0 mm 1 m/S 558 mmHg 95%
    02:00 +10°C° 0 mm 1 m/S 558 mmHg 94%
    03:00 +10°C° 0 mm 1 m/S 558 mmHg 94%
    04:00 +10°C° 0 mm 1 m/S 557 mmHg 93%
    05:00 +11°C° 0 mm 1 m/S 558 mmHg 91%
    06:00 +11°C° 0 mm 1 m/S 559 mmHg 89%
    07:00 +12°C° 0 mm 1 m/S 560 mmHg 88%
    08:00 +14°C° 0 mm 1 m/S 561 mmHg 76%
    09:00 +16°C° 0 mm 2 m/S 562 mmHg 64%
    10:00 +18°C° 0 mm 3 m/S 563 mmHg 52%
    11:00 +19°C° 0.1 mm 3 m/S 563 mmHg 52%
    12:00 +20°C° 0.1 mm 3 m/S 562 mmHg 51%
    13:00 +20°C° 0.1 mm 3 m/S 562 mmHg 50%
    14:00 +19°C° 0.3 mm 3 m/S 561 mmHg 55%
    15:00 +18°C° 0.3 mm 3 m/S 560 mmHg 61%
    16:00 +17°C° 0.3 mm 2 m/S 559 mmHg 66%
    17:00 +15°C° 0.2 mm 2 m/S 559 mmHg 72%
    18:00 +14°C° 0.2 mm 2 m/S 558 mmHg 79%
    19:00 +12°C° 0.2 mm 1 m/S 557 mmHg 86%
    20:00 +11°C° 0.1 mm 1 m/S 558 mmHg 87%
    21:00 +11°C° 0.1 mm 1 m/S 558 mmHg 88%
    22:00 +10°C° 0.1 mm 1 m/S 558 mmHg 89%
    23:00 +10°C° 0 mm 1 m/S 558 mmHg 87%

    27 September, Freitag

    Zeit Temperatur Niederschläge Wind Luftdruck Luftfeuchtigkeit
    00:00 +10°C° 0 mm 1 m/S 557 mmHg 85%
    01:00 +10°C° 0 mm 1 m/S 557 mmHg 84%
    02:00 +10°C° 0 mm 1 m/S 557 mmHg 82%
    03:00 +10°C° 0 mm 1 m/S 557 mmHg 80%
    04:00 +10°C° 0 mm 1 m/S 557 mmHg 79%
    05:00 +10°C° 0 mm 1 m/S 558 mmHg 77%
    06:00 +11°C° 0 mm 1 m/S 559 mmHg 75%
    07:00 +12°C° 0 mm 1 m/S 560 mmHg 72%
    08:00 +14°C° 0 mm 1 m/S 561 mmHg 67%
    09:00 +17°C° 0 mm 2 m/S 562 mmHg 61%
    10:00 +19°C° 0 mm 2 m/S 563 mmHg 55%
    11:00 +19°C° 0.3 mm 2 m/S 562 mmHg 57%
    12:00 +19°C° 0.3 mm 2 m/S 562 mmHg 60%
    13:00 +19°C° 0.3 mm 2 m/S 561 mmHg 62%
    14:00 +19°C° 1.2 mm 1 m/S 560 mmHg 69%
    15:00 +19°C° 1.2 mm 1 m/S 560 mmHg 75%
    16:00 +18°C° 1.2 mm 1 m/S 559 mmHg 82%
    17:00 +15°C° 1.3 mm 1 m/S 559 mmHg 86%
    18:00 +14°C° 1.3 mm 1 m/S 559 mmHg 90%
    19:00 +13°C° 1.3 mm 1 m/S 558 mmHg 94%
    20:00 +12°C° 0.6 mm 1 m/S 558 mmHg 95%
    21:00 +12°C° 0.6 mm 1 m/S 558 mmHg 95%
    22:00 +11°C° 0.6 mm 1 m/S 558 mmHg 96%
    23:00 +11°C° 0 mm 1 m/S 558 mmHg 95%
    Mehr zeigen